sat.trackr.live / text

‹ back to catalog

INSAT-3DS

NORAD 58990 · 2024-033A

PAYLOAD ACTIVE UNKNOWN

§ Identity

Operator
Country
IND
Launch date
2024-02-17
Launch site
SRILR
Launch vehicle
Mass (kg)
RCS (m²)

Purposes: comms, earth_obs

External: N2YO · Heavens-Above · Gunter

§ Orbital elements

Epoch: 2026-05-25T02:25:22.912032Z

Period
1,436.09 min
Inclination
0.0324°
Eccentricity
0.0001465
Mean motion
1.00272442 rev/d
Perigee alt
35,780.2 km
Apogee alt
35,792.6 km
Semi-major
42,164.5 km
B*
0.0000e+0
RAAN
250.4156°
Arg perigee
160.9870°
Mean anomaly
309.6965°
Rev number
4,683

§ Raw data

INSAT-3DS1 58990U 24033A   26145.10095963 -.00000158  00000+0  00000+0 0  99972 58990   0.0324 250.4156 0001465 160.9870 309.6965  1.00272442 46833

JSON: /api/v1/satellites/58990 · /tle

For live sub-satellite position, see the globe view (requires WebGL).

§ Visibility from observer

Set your observer location to see the next 7 days of passes ≥ 10°. The values pass through the URL so the page stays shareable.

No JS? Fill the form by hand. The geolocation button needs JavaScript.